Regional Weather Roundup
Issued by NWS Grand Forks, ND

Home | Current Version | Previous Version | Graphics & Text | Print | Product List | Glossary On
Versions: 1 2 3 4 5 6 7 8 9 10 11 12 13 14 15 16 17 18 19 20 21 22 23 24 25 26 27 28 29 30 31 32 33 34 35 36 37 38 39 40 41 42 43 44 45 46 47 48 49 50
144
ASUS43 KFGF 260431
RWRFGF
PRAIRIE TO PINES  WEATHER ROUNDUP
NATIONAL WEATHER SERVICE EASTERN NORTH DAKOTA/GRAND FORKS ND
1100 PM CDT MON JUL 25 2016

 **SATELLITE DATA USED TO AUGMENT SKY COVER AT AUTOMATED STATIONS**
 *****  WEATHER ACROSS EASTERN NORTH DAKOTA  *****

CITY           SKY/WX    TMP DP  RH WIND       PRES   REMARKS
GRAND FORKS    MOCLDY    77  70  79 NE10      29.90R
GRAND FRKS AFB PTCLDY    76  69  79 NE8       29.92R
GRAND FRKS NWS   N/A     73 N/A N/A NE18        N/A
DEVILS LAKE    CLEAR     73  68  84 NE6       29.96S
FARGO          PTCLDY    79  66  64 S13       29.91S
WAHPETON ARPT  CLEAR     70  63  78 SE8       29.95S
$$

 ***** WEATHER ACROSS CENTRAL AND WESTERN NORTH DAKOTA  *****

CITY           SKY/WX    TMP DP  RH WIND       PRES   REMARKS
BISMARCK       PTCLDY    81  67  62 NE12      29.94R
MINOT          CLEAR     74  66  76 NE3       29.97R
JAMESTOWN      CLOUDY    72  67  84 S3        29.92S
MINOT AFB      CLEAR     67  63  86 N5        29.97R
GARRISON         N/A     72  68  87 NE6       29.98R
WILLISTON      CLEAR     77  59  53 E7        29.99R
DICKINSON      CLEAR     69  58  67 NE8       29.99R
HETTINGER      CLOUDY    77  51  40 N3        29.99S
$$

 *****  OTHER AIRPORT OBSERVATIONS IN OUR AREA  *****

CITY           SKY/WX    TMP DP  RH WIND       PRES   REMARKS
WALHALLA       FAIR      68  64  88 CALM      29.95S
GRAFTON AIRPOR LGT RAIN  72  72 100 CALM      29.94F
VALLEY CITY AR   N/A     70  70 100 SW8       29.95R
CANDO          FAIR      66  66 100 N6        29.99R
CAVALIER APRT  FAIR      68  68 100 CALM      29.94S
GWINNER        FAIR      73  63  68 S13       29.94R
SHEYENNE NWR     N/A     72  62  71 S5        29.95S
ROLLA          FAIR      64  64 100 NW6       30.00S
 ***** THE ABOVE OBSERVATIONS ARE NON NWS ARE NOT QUALITY
       CONTROLLED AND MAY MIS-REPORT RAIN FOR SNOW...
$$

  *****  WEATHER ACROSS NORTHERN MINNESOTA  *****

CITY           SKY/WX    TMP DP  RH WIND       PRES   REMARKS
FLAG ISLAND    CLEAR     73  63  68 CALM      29.94S
WARROAD        CLOUDY    68  64  88 CALM      29.97R
ROSEAU         CLOUDY    68  63  83 CALM      29.96S
HALLOCK        PTCLDY    70  66  88 SE3       29.94R
THF RVR FALLS  CLOUDY    74  68  81 N8        29.95S
BAUDETTE       CLOUDY    66  64  93 CALM      29.96S
WASKISH        CLOUDY    66  64  94 CALM      29.97R
CROOKSTON      PTCLDY    75  66  73 SE6       29.91S
STEPHEN NDAWN    N/A     73  66  78 NE7         N/A
GREENBUSH NDAW   N/A     66  64  94 S3          N/A
$$
  *****  WEATHER ACROSS CENTRAL AND WEST MINNESOTA  *****

CITY           SKY/WX    TMP DP  RH WIND       PRES   REMARKS
FOSSTON        MOCLDY    72  66  83 SE6       29.96R
BEMIDJI        PTCLDY    72  64  78 SE3       29.98S
PARK RAPIDS    CLEAR     74  67  78 S8        29.99S
ELBOW LAKE     FAIR      71  64  79 S10       29.99S
WADENA         NOT AVBL
DETROIT LAKES  CLEAR     73  64  73 S7        29.98S
MOORHEAD       PTCLDY    75  66  73 S9        29.93S
FERGUS FALLS   CLEAR     73  64  73 S9        29.98S
MORRIS MN      CLEAR     70  64  83 S7        29.99S
STAPLES        CLEAR     70  64  83 S6        30.00S
$$
  *****  WEATHER ELSEWHERE ACROSS MINNESOTA  *****

CITY           SKY/WX    TMP DP  RH WIND       PRES   REMARKS
DULUTH         CLEAR     69  63  81 W7        30.01R
INTRNTL FALLS  CLOUDY    63  60  90 CALM      29.96S
ELY            CLEAR     64  61  88 SW3       29.99S
CLOQUET        CLEAR     72  61  68 SW6       30.01S
WHEATON        CLEAR     75  66  73 S12       29.98S
BRAINERD       CLEAR     69  65  86 S3        30.01S
HIBBING        CLEAR     62  61  96 CALM      30.00S
ALEXANDRIA     PTCLDY    75  66  73 S9        30.02F
SAINT CLOUD    CLEAR     70  68  93 S3        30.02S
MINNEAPOLIS    CLEAR     80  64  58 SW3       30.03S
$$

  *****  WEATHER ACROSS SOUTH DAKOTA  *****

CITY           SKY/WX    TMP DP  RH WIND       PRES   REMARKS
SIOUX FALLS    PTCLDY    74  63  68 S9        30.07R
BROOKINGS      CLOUDY    72  65  78 S8        30.07R
WATERTOWN      CLEAR     74  64  71 S10       30.04R
HURON          MOCLDY    78  57  48 S12       30.01R
SISSETON         N/A     73  63  70 S8        29.95S
ABERDEEN       CLEAR     74  58  57 S12       29.96R
MITCHELL       PTCLDY    78  61  55 S8        30.05R
PIERRE         MOCLDY    81  55  40 S12       29.98R
MOBRIDGE       MOCLDY    83  56  39 SE8       29.93R
RAPID CITY     CLEAR     72  58  61 SE3       30.02R
$$

  *****  SOME WEATHER IN NEARBY STATES *****

CITY           SKY/WX    TMP DP  RH WIND       PRES   REMARKS
GLASGOW MT     CLEAR     74  59  59 NE14      29.99R
GREAT FALLS MT MOCLDY    75  45  34 SW18G25   30.09R
CHEYENNE WY    CLEAR     70  53  54 SE7       30.21R
SCOTTSBLUFF NE CLEAR     75  62  64 E12       30.09R
OMAHA NE       CLEAR     77  67  71 SE5       30.09R
DES MOINES IA  CLEAR     77  64  64 CALM      30.08R
DAVENPORT IA   CLEAR     68  65  90 NW3       30.05S
CHICAGO IL     CLOUDY    79  63  57 NE3       30.02R
EAU CLAIRE WI  CLEAR     68  64  87 CALM      30.03R
LA CROSSE WI   CLEAR     72  66  81 E5        30.04R
$$

  *****  SOME NATIONAL WEATHER *****

CITY           SKY/WX    TMP DP  RH WIND       PRES   REMARKS
LA GUARDIA NY  PTCLDY    78  73  84 SW10      29.87S
RALEIGH NC     PTCLDY    84  72  67 SW12      30.00S
ATLANTA GA     MOCLDY    78  74  87 NW5       30.08R
NEW ORLEANS LA PTCLDY    82  75  79 SE3       29.93S
OKLAHOMA CITY  TSTM      77  74  90 CALM      30.00R
ALBUQUERQUE NM MOCLDY    78  54  43 N14       30.23S
SALT LAKE CITY PTCLDY    87  39  18 S8        29.99R
LOS ANGELES CA MOCLDY    71  66  84 W13       29.91R
BOISE ID       CLEAR     88  34  14 CALM      29.90R
SEATTLE WA     PTCLDY    76  61  59 N5        30.05R
$$

*** WEATHER ACROSS MANITOBA...SASKATCHEWAN AND ONTARIO ***
                ***ONTARIO***

CITY           SKY/WX    TMP DP  RH WIND       PRES   REMARKS
GERALDTON      CLEAR     63  57  82 W7        29.86R
THUNDER BAY    CLEAR     63  61  94 W5        29.91S
SIOUX LOOKOUT  PTCLDY    72  59  64 W5        29.91S
TORONTO        CLEAR     73  61  64 NW14      29.91R
BIG TROUT LK   CLEAR     61  59  94 W7        29.71F
PICKLE LAKE    NOT AVBL
DRYDEN         CLEAR     68  59  73 SW6       29.93S
KENORA         PTCLDY    73  57  56 W7        29.95S
$$
                *** MANITOBA***

CITY           SKY/WX    TMP DP  RH WIND       PRES   REMARKS
BRANDON        PTCLDY    66  63  88 CALM      29.97S
DAUPHIN        CLEAR     64  61  88 W3        29.97R
ISLAND LAKE    PTCLDY    68  55  64 W10       29.81S
PILOT MOUND      N/A     70  64  83 NW2         N/A
THE PAS        PTCLDY    66  52  59 NW8       29.95R
THOMPSON       MOCLDY    63  52  67 NW8G17    29.83R
WINNIPEG       PTCLDY    72  63  73 SW8       29.93S
LYNN LAKE      CLOUDY    55  45  67 MISG      29.95R
CHURCHILL      LGT RAIN  48  48 100 E13       29.73  FOG
GILLAM         LGT RAIN  61  57  88 W12G17    29.71S
$$
                ***SASKATCHEWAN***

CITY           SKY/WX    TMP DP  RH WIND       PRES   REMARKS
ESTEVAN        PTCLDY    70  64  83 VRB2      29.99R
KINDERSLEY     PTCLDY    63  59  88 NE7       30.08R
LLOYDMINSTER   PTCLDY    59  52  77 CALM      30.08R
PRINCE ALBERT  PTCLDY    59  52  77 NW2       30.02
REGINA         PTCLDY    64  57  77 NE3       30.04R
YORKTON        CLEAR     64  57  77 W7        30.02R
N. BATTLEFORD  CLEAR     63  50  63 N2        30.08R
LA RONGE       PTCLDY    59  46  63 NW3       30.03R
SASKATOON      PTCLDY    59  50  72 NW7       30.06R
SWIFT CURRENT  CLEAR     64  55  72 E8        30.08R
$$
NOTE: THESE ARE AUTOMATED STATIONS WITH LIMITED QUALITY CONTROL
      "FAIR" INDICATES FEW OR NO CLOUDS BELOW 12,000 FEET WITH NO
      SIGNIFICANT WEATHER AND/OR OBSTRUCTIONS TO VISIBILITY.
      SKY/WX - SKY CONDITION AND SIGNIFICANT WEATHER.
      TMP - AIR TEMPERATURE.    DP   - DEWPOINT TEMPERATURE.
      RH  - RELATIVE HUMIDITY.  PRES - PRESSURE.
      HX  - HEAT INDEX.         WCI  - WIND CHILL INDEX.
$




USA.gov is the U.S. government's official web portal to all federal, state and local government web resources and services.